Weather in Sciacca

Italy     37°30′48″N   13°04′40″E
В апреле 2022 года жителям России запретили посещать сайт meteo.paraplan.net по решению Генеральной прокуратуры. Аудитория сайта уменьшилась в 10 раз. Владельцы сайта не видят смысла в поддержке погодного сервера в таких условиях. Сайт будет закрыт в октябре.
temp.,
°C
wind,
m/s
gust,
m/s
humid.,
%
clouds,
%
prec.,
mm/h
press.,
hPa
HPBL,
m
4 october, tue
tue423:00+21nnw467517 0.0 1017248
02:00+20n33765 0.0 1016138
05:00+20ene22723 0.0 1016123
08:00+20e336637 0.0 1017147
11:00+23sse44621 0.0 1019616
14:00+23sse55691 0.0 1020709
17:00+23sse44705 0.0 1019664
20:00+22sse237718 0.3 1021161
5 october, wed
wed523:00+22se227735 0.4 1022111
02:00+21e23802 0.9 1023138
05:00+21ese22804 0.2 1023201
08:00+21e22790 0.3 1024229
11:00+22sse326914 0.1 1025644
14:00+23s446960 0.1 1025528
17:00+23ssw327022 0.1 1024630
20:00+22wsw227485 0.2 1025414
6 october, thu
thu623:00+21wsw11774 0.2 1026209
02:00+21ese11805 0.4 102693
05:00+20ne118234 0.1 1026105
08:00+20nne228213 0.1 1026122
11:00+22w226572 0.0 1027616
14:00+23wsw656833 0.0 1026670
17:00+23w67655 0.0 1024662
20:00+22nw56580 0.0 1025237
7 october, fri
fri723:00+21nne23550 0.0 1025109
02:00+20ne23520 0.0 1025121
05:00+20ne22490 0.0 1024110
08:00+20ne22480 0.0 1023105
11:00+22ssw11450 0.0 1024379
14:00+22ssw31540 0.0 1023524
17:00+22wsw33560 0.0 1021403
20:00+21wnw22585 0.0 1022188
8 october, sat
sat823:00+21sw0156100 0.0 1022150
02:00+20ese1160100 0.0 1022183
05:00+20e1165100 0.0 1021148
08:00+19ene226682 0.0 102189
11:00+21ssw116367 0.0 1022358
14:00+22sw326333 0.0 1021571
17:00+22wsw44700 0.0 1020437
20:00+22wnw34740 0.0 1020283